{"data":{"norad_id":45246,"intl_designator":"2020-013B","name":"GEO-KOMPSAT-2B","alt_names":[],"object_type":"PAYLOAD","status":"ACTIVE","operator":null,"country":"SKOR","launch_date":"2020-02-18","launch_site_code":"FRGUI","launch_vehicle":null,"mission":null,"orbit_class":"UNKNOWN","rcs_meters":null,"size_class":null,"mass_kg":null,"dimensions":null,"purposes":["comms"],"wikipedia_slug":null,"has_3d_model":false,"image_url":null,"decayed_at":null,"tle_current":{"epoch":"2026-09-20T00:25:23.446272Z","epoch_age_seconds":63593,"freshness":"FRESH","line1":"1 45246U 20013B   26263.01763248 -.00000348  00000+0  00000+0 0  9991","line2":"2 45246   0.0404 334.5806 0001395 252.4199 266.5426  1.00271831 24235","mean_motion":1.00271831,"eccentricity":0.0001395,"inclination_deg":0.0404,"raan_deg":334.5806,"arg_perigee_deg":252.4199,"mean_anomaly_deg":266.5426,"bstar":0,"rev_number":2423,"period_min":1436.0962452157,"perigee_km":35780.700087416,"apogee_km":35792.464044035,"semimajor_km":42164.719065726,"source":"CELESTRAK","updated_at":"2026-09-20T09:00:35.293074Z"}}}